Index of /20260428/WXO-DD/model_gdps/15km/00/240
Name Last modified Size Description
Parent Directory -
20260428T00Z_MSC_GDPS_AbsoluteVorticity_IsbL-0200_LatLon0.15_PT240H.grib2 2026-04-28 04:48 1.2M
20260428T00Z_MSC_GDPS_AbsoluteVorticity_IsbL-0250_LatLon0.15_PT240H.grib2 2026-04-28 04:48 1.3M
20260428T00Z_MSC_GDPS_AbsoluteVorticity_IsbL-0500_LatLon0.15_PT240H.grib2 2026-04-28 04:48 1.2M
20260428T00Z_MSC_GDPS_AbsoluteVorticity_IsbL-0700_LatLon0.15_PT240H.grib2 2026-04-28 04:48 1.3M
20260428T00Z_MSC_GDPS_AbsoluteVorticity_IsbL-0850_LatLon0.15_PT240H.grib2 2026-04-28 04:48 1.6M
20260428T00Z_MSC_GDPS_AirTemp-Max_AGL-2m_LatLon0.15_PT240H.grib2 2026-04-28 04:48 747K
20260428T00Z_MSC_GDPS_AirTemp-Min_AGL-2m_LatLon0.15_PT240H.grib2 2026-04-28 04:48 792K
20260428T00Z_MSC_GDPS_AirTemp_AGL-120m_LatLon0.15_PT240H.grib2 2026-04-28 04:48 909K
20260428T00Z_MSC_GDPS_AirTemp_AGL-2m_LatLon0.15_PT240H.grib2 2026-04-28 04:48 1.0M
20260428T00Z_MSC_GDPS_AirTemp_AGL-40m_LatLon0.15_PT240H.grib2 2026-04-28 04:48 811K
20260428T00Z_MSC_GDPS_AirTemp_AGL-80m_LatLon0.15_PT240H.grib2 2026-04-28 04:48 918K
20260428T00Z_MSC_GDPS_AirTemp_IsbL-0001_LatLon0.15_PT240H.grib2 2026-04-28 04:48 662K
20260428T00Z_MSC_GDPS_AirTemp_IsbL-0005_LatLon0.15_PT240H.grib2 2026-04-28 04:48 696K
20260428T00Z_MSC_GDPS_AirTemp_IsbL-0010_LatLon0.15_PT240H.grib2 2026-04-28 04:48 695K
20260428T00Z_MSC_GDPS_AirTemp_IsbL-0020_LatLon0.15_PT240H.grib2 2026-04-28 04:48 788K
20260428T00Z_MSC_GDPS_AirTemp_IsbL-0030_LatLon0.15_PT240H.grib2 2026-04-28 04:48 837K
20260428T00Z_MSC_GDPS_AirTemp_IsbL-0050_LatLon0.15_PT240H.grib2 2026-04-28 04:48 798K
20260428T00Z_MSC_GDPS_AirTemp_IsbL-0100_LatLon0.15_PT240H.grib2 2026-04-28 04:48 964K
20260428T00Z_MSC_GDPS_AirTemp_IsbL-0150_LatLon0.15_PT240H.grib2 2026-04-28 04:48 1.0M
20260428T00Z_MSC_GDPS_AirTemp_IsbL-0175_LatLon0.15_PT240H.grib2 2026-04-28 04:48 966K
20260428T00Z_MSC_GDPS_AirTemp_IsbL-0200_LatLon0.15_PT240H.grib2 2026-04-28 04:48 1.0M
20260428T00Z_MSC_GDPS_AirTemp_IsbL-0225_LatLon0.15_PT240H.grib2 2026-04-28 04:48 1.0M
20260428T00Z_MSC_GDPS_AirTemp_IsbL-0250_LatLon0.15_PT240H.grib2 2026-04-28 04:48 1.0M
20260428T00Z_MSC_GDPS_AirTemp_IsbL-0275_LatLon0.15_PT240H.grib2 2026-04-28 04:48 936K
20260428T00Z_MSC_GDPS_AirTemp_IsbL-0300_LatLon0.15_PT240H.grib2 2026-04-28 04:48 945K
20260428T00Z_MSC_GDPS_AirTemp_IsbL-0350_LatLon0.15_PT240H.grib2 2026-04-28 04:48 934K
20260428T00Z_MSC_GDPS_AirTemp_IsbL-0400_LatLon0.15_PT240H.grib2 2026-04-28 04:48 953K
20260428T00Z_MSC_GDPS_AirTemp_IsbL-0450_LatLon0.15_PT240H.grib2 2026-04-28 04:48 753K
20260428T00Z_MSC_GDPS_AirTemp_IsbL-0500_LatLon0.15_PT240H.grib2 2026-04-28 04:48 773K
20260428T00Z_MSC_GDPS_AirTemp_IsbL-0550_LatLon0.15_PT240H.grib2 2026-04-28 04:48 807K
20260428T00Z_MSC_GDPS_AirTemp_IsbL-0600_LatLon0.15_PT240H.grib2 2026-04-28 04:48 895K
20260428T00Z_MSC_GDPS_AirTemp_IsbL-0650_LatLon0.15_PT240H.grib2 2026-04-28 04:48 916K
20260428T00Z_MSC_GDPS_AirTemp_IsbL-0700_LatLon0.15_PT240H.grib2 2026-04-28 04:48 950K
20260428T00Z_MSC_GDPS_AirTemp_IsbL-0750_LatLon0.15_PT240H.grib2 2026-04-28 04:48 1.0M
20260428T00Z_MSC_GDPS_AirTemp_IsbL-0800_LatLon0.15_PT240H.grib2 2026-04-28 04:48 1.1M
20260428T00Z_MSC_GDPS_AirTemp_IsbL-0850_LatLon0.15_PT240H.grib2 2026-04-28 04:48 1.1M
20260428T00Z_MSC_GDPS_AirTemp_IsbL-0875_LatLon0.15_PT240H.grib2 2026-04-28 04:48 1.2M
20260428T00Z_MSC_GDPS_AirTemp_IsbL-0900_LatLon0.15_PT240H.grib2 2026-04-28 04:48 1.1M
20260428T00Z_MSC_GDPS_AirTemp_IsbL-0925_LatLon0.15_PT240H.grib2 2026-04-28 04:48 1.1M
20260428T00Z_MSC_GDPS_AirTemp_IsbL-0950_LatLon0.15_PT240H.grib2 2026-04-28 04:48 1.1M
20260428T00Z_MSC_GDPS_AirTemp_IsbL-0970_LatLon0.15_PT240H.grib2 2026-04-28 04:48 1.1M
20260428T00Z_MSC_GDPS_AirTemp_IsbL-0985_LatLon0.15_PT240H.grib2 2026-04-28 04:48 1.1M
20260428T00Z_MSC_GDPS_AirTemp_IsbL-1000_LatLon0.15_PT240H.grib2 2026-04-28 04:48 895K
20260428T00Z_MSC_GDPS_AirTemp_IsbL-1015_LatLon0.15_PT240H.grib2 2026-04-28 04:48 854K
20260428T00Z_MSC_GDPS_Albedo_Sfc_LatLon0.15_PT240H.grib2 2026-04-28 04:48 243K
20260428T00Z_MSC_GDPS_CAPE_Sfc_LatLon0.15_PT240H.grib2 2026-04-28 04:48 3.9M
20260428T00Z_MSC_GDPS_CIN_Sfc_LatLon0.15_PT240H.grib2 2026-04-28 04:48 2.8M
20260428T00Z_MSC_GDPS_CloudWater_EAtm_LatLon0.15_PT240H.grib2 2026-04-28 04:48 533K
20260428T00Z_MSC_GDPS_ConvectivePrecip-Accum_Sfc_LatLon0.15_PT240H.grib2 2026-04-28 04:48 3.8M
20260428T00Z_MSC_GDPS_DewPointDepression_AGL-2m_LatLon0.15_PT240H.grib2 2026-04-28 04:48 762K
20260428T00Z_MSC_GDPS_DewPointDepression_IsbL-0010_LatLon0.15_PT240H.grib2 2026-04-28 04:48 72K
20260428T00Z_MSC_GDPS_DewPointDepression_IsbL-0020_LatLon0.15_PT240H.grib2 2026-04-28 04:48 67K
20260428T00Z_MSC_GDPS_DewPointDepression_IsbL-0030_LatLon0.15_PT240H.grib2 2026-04-28 04:48 84K
20260428T00Z_MSC_GDPS_DewPointDepression_IsbL-0050_LatLon0.15_PT240H.grib2 2026-04-28 04:48 372K
20260428T00Z_MSC_GDPS_DewPointDepression_IsbL-0100_LatLon0.15_PT240H.grib2 2026-04-28 04:48 394K
20260428T00Z_MSC_GDPS_DewPointDepression_IsbL-0150_LatLon0.15_PT240H.grib2 2026-04-28 04:48 488K
20260428T00Z_MSC_GDPS_DewPointDepression_IsbL-0175_LatLon0.15_PT240H.grib2 2026-04-28 04:48 593K
20260428T00Z_MSC_GDPS_DewPointDepression_IsbL-0200_LatLon0.15_PT240H.grib2 2026-04-28 04:48 694K
20260428T00Z_MSC_GDPS_DewPointDepression_IsbL-0225_LatLon0.15_PT240H.grib2 2026-04-28 04:48 777K
20260428T00Z_MSC_GDPS_DewPointDepression_IsbL-0250_LatLon0.15_PT240H.grib2 2026-04-28 04:48 863K
20260428T00Z_MSC_GDPS_DewPointDepression_IsbL-0275_LatLon0.15_PT240H.grib2 2026-04-28 04:48 879K
20260428T00Z_MSC_GDPS_DewPointDepression_IsbL-0300_LatLon0.15_PT240H.grib2 2026-04-28 04:48 923K
20260428T00Z_MSC_GDPS_DewPointDepression_IsbL-0350_LatLon0.15_PT240H.grib2 2026-04-28 04:48 956K
20260428T00Z_MSC_GDPS_DewPointDepression_IsbL-0400_LatLon0.15_PT240H.grib2 2026-04-28 04:48 1.0M
20260428T00Z_MSC_GDPS_DewPointDepression_IsbL-0450_LatLon0.15_PT240H.grib2 2026-04-28 04:48 1.0M
20260428T00Z_MSC_GDPS_DewPointDepression_IsbL-0500_LatLon0.15_PT240H.grib2 2026-04-28 04:48 1.0M
20260428T00Z_MSC_GDPS_DewPointDepression_IsbL-0550_LatLon0.15_PT240H.grib2 2026-04-28 04:48 1.0M
20260428T00Z_MSC_GDPS_DewPointDepression_IsbL-0600_LatLon0.15_PT240H.grib2 2026-04-28 04:48 1.0M
20260428T00Z_MSC_GDPS_DewPointDepression_IsbL-0650_LatLon0.15_PT240H.grib2 2026-04-28 04:48 1.1M
20260428T00Z_MSC_GDPS_DewPointDepression_IsbL-0700_LatLon0.15_PT240H.grib2 2026-04-28 04:48 1.1M
20260428T00Z_MSC_GDPS_DewPointDepression_IsbL-0750_LatLon0.15_PT240H.grib2 2026-04-28 04:48 1.1M
20260428T00Z_MSC_GDPS_DewPointDepression_IsbL-0800_LatLon0.15_PT240H.grib2 2026-04-28 04:48 1.2M
20260428T00Z_MSC_GDPS_DewPointDepression_IsbL-0850_LatLon0.15_PT240H.grib2 2026-04-28 04:48 1.2M
20260428T00Z_MSC_GDPS_DewPointDepression_IsbL-0875_LatLon0.15_PT240H.grib2 2026-04-28 04:48 1.1M
20260428T00Z_MSC_GDPS_DewPointDepression_IsbL-0900_LatLon0.15_PT240H.grib2 2026-04-28 04:48 1.1M
20260428T00Z_MSC_GDPS_DewPointDepression_IsbL-0925_LatLon0.15_PT240H.grib2 2026-04-28 04:48 1.0M
20260428T00Z_MSC_GDPS_DewPointDepression_IsbL-0950_LatLon0.15_PT240H.grib2 2026-04-28 04:48 1.0M
20260428T00Z_MSC_GDPS_DewPointDepression_IsbL-0970_LatLon0.15_PT240H.grib2 2026-04-28 04:48 1.0M
20260428T00Z_MSC_GDPS_DewPointDepression_IsbL-0985_LatLon0.15_PT240H.grib2 2026-04-28 04:48 1.0M
20260428T00Z_MSC_GDPS_DewPointDepression_IsbL-1000_LatLon0.15_PT240H.grib2 2026-04-28 04:48 966K
20260428T00Z_MSC_GDPS_DewPointDepression_IsbL-1015_LatLon0.15_PT240H.grib2 2026-04-28 04:48 910K
20260428T00Z_MSC_GDPS_DewPoint_AGL-2m_LatLon0.15_PT240H.grib2 2026-04-28 04:48 602K
20260428T00Z_MSC_GDPS_DownwardLongwaveRadiationFlux-Accum_Sfc_LatLon0.15_PT240H.grib2 2026-04-28 04:48 744K
20260428T00Z_MSC_GDPS_DownwardShortwaveRadiationFlux-Accum_NTAtm_LatLon0.15_PT240H.grib2 2026-04-28 04:48 240K
20260428T00Z_MSC_GDPS_DownwardShortwaveRadiationFlux-Accum_Sfc_LatLon0.15_PT240H.grib2 2026-04-28 04:48 924K
20260428T00Z_MSC_GDPS_FreezingRain-Accum12h_Sfc_LatLon0.15_PT240H.grib2 2026-04-28 04:48 115K
20260428T00Z_MSC_GDPS_FreezingRain-Accum24h_Sfc_LatLon0.15_PT240H.grib2 2026-04-28 04:48 153K
20260428T00Z_MSC_GDPS_FreezingRain-Accum6h_Sfc_LatLon0.15_PT240H.grib2 2026-04-28 04:48 70K
20260428T00Z_MSC_GDPS_FreezingRain-Accum_Sfc_LatLon0.15_PT240H.grib2 2026-04-28 04:48 529K
20260428T00Z_MSC_GDPS_GeopotentialHeight_IsbL-0001_LatLon0.15_PT240H.grib2 2026-04-28 04:48 439K
20260428T00Z_MSC_GDPS_GeopotentialHeight_IsbL-0005_LatLon0.15_PT240H.grib2 2026-04-28 04:48 494K
20260428T00Z_MSC_GDPS_GeopotentialHeight_IsbL-0010_LatLon0.15_PT240H.grib2 2026-04-28 04:48 481K
20260428T00Z_MSC_GDPS_GeopotentialHeight_IsbL-0020_LatLon0.15_PT240H.grib2 2026-04-28 04:48 411K
20260428T00Z_MSC_GDPS_GeopotentialHeight_IsbL-0030_LatLon0.15_PT240H.grib2 2026-04-28 04:48 412K
20260428T00Z_MSC_GDPS_GeopotentialHeight_IsbL-0050_LatLon0.15_PT240H.grib2 2026-04-28 04:48 565K
20260428T00Z_MSC_GDPS_GeopotentialHeight_IsbL-0100_LatLon0.15_PT240H.grib2 2026-04-28 04:48 609K
20260428T00Z_MSC_GDPS_GeopotentialHeight_IsbL-0150_LatLon0.15_PT240H.grib2 2026-04-28 04:48 633K
20260428T00Z_MSC_GDPS_GeopotentialHeight_IsbL-0175_LatLon0.15_PT240H.grib2 2026-04-28 04:48 638K
20260428T00Z_MSC_GDPS_GeopotentialHeight_IsbL-0200_LatLon0.15_PT240H.grib2 2026-04-28 04:48 644K
20260428T00Z_MSC_GDPS_GeopotentialHeight_IsbL-0225_LatLon0.15_PT240H.grib2 2026-04-28 04:48 648K
20260428T00Z_MSC_GDPS_GeopotentialHeight_IsbL-0250_LatLon0.15_PT240H.grib2 2026-04-28 04:48 647K
20260428T00Z_MSC_GDPS_GeopotentialHeight_IsbL-0275_LatLon0.15_PT240H.grib2 2026-04-28 04:48 648K
20260428T00Z_MSC_GDPS_GeopotentialHeight_IsbL-0300_LatLon0.15_PT240H.grib2 2026-04-28 04:48 640K
20260428T00Z_MSC_GDPS_GeopotentialHeight_IsbL-0350_LatLon0.15_PT240H.grib2 2026-04-28 04:48 636K
20260428T00Z_MSC_GDPS_GeopotentialHeight_IsbL-0400_LatLon0.15_PT240H.grib2 2026-04-28 04:48 628K
20260428T00Z_MSC_GDPS_GeopotentialHeight_IsbL-0450_LatLon0.15_PT240H.grib2 2026-04-28 04:48 617K
20260428T00Z_MSC_GDPS_GeopotentialHeight_IsbL-0500_LatLon0.15_PT240H.grib2 2026-04-28 04:48 538K
20260428T00Z_MSC_GDPS_GeopotentialHeight_IsbL-0550_LatLon0.15_PT240H.grib2 2026-04-28 04:48 530K
20260428T00Z_MSC_GDPS_GeopotentialHeight_IsbL-0600_LatLon0.15_PT240H.grib2 2026-04-28 04:48 690K
20260428T00Z_MSC_GDPS_GeopotentialHeight_IsbL-0650_LatLon0.15_PT240H.grib2 2026-04-28 04:48 691K
20260428T00Z_MSC_GDPS_GeopotentialHeight_IsbL-0700_LatLon0.15_PT240H.grib2 2026-04-28 04:48 693K
20260428T00Z_MSC_GDPS_GeopotentialHeight_IsbL-0750_LatLon0.15_PT240H.grib2 2026-04-28 04:48 693K
20260428T00Z_MSC_GDPS_GeopotentialHeight_IsbL-0800_LatLon0.15_PT240H.grib2 2026-04-28 04:48 709K
20260428T00Z_MSC_GDPS_GeopotentialHeight_IsbL-0850_LatLon0.15_PT240H.grib2 2026-04-28 04:48 715K
20260428T00Z_MSC_GDPS_GeopotentialHeight_IsbL-0875_LatLon0.15_PT240H.grib2 2026-04-28 04:48 725K
20260428T00Z_MSC_GDPS_GeopotentialHeight_IsbL-0900_LatLon0.15_PT240H.grib2 2026-04-28 04:48 730K
20260428T00Z_MSC_GDPS_GeopotentialHeight_IsbL-0925_LatLon0.15_PT240H.grib2 2026-04-28 04:48 735K
20260428T00Z_MSC_GDPS_GeopotentialHeight_IsbL-0950_LatLon0.15_PT240H.grib2 2026-04-28 04:48 745K
20260428T00Z_MSC_GDPS_GeopotentialHeight_IsbL-0970_LatLon0.15_PT240H.grib2 2026-04-28 04:48 754K
20260428T00Z_MSC_GDPS_GeopotentialHeight_IsbL-0985_LatLon0.15_PT240H.grib2 2026-04-28 04:48 769K
20260428T00Z_MSC_GDPS_GeopotentialHeight_IsbL-1000_LatLon0.15_PT240H.grib2 2026-04-28 04:48 789K
20260428T00Z_MSC_GDPS_GeopotentialHeight_IsbL-1015_LatLon0.15_PT240H.grib2 2026-04-28 04:48 811K
20260428T00Z_MSC_GDPS_Humidex_Sfc_LatLon0.15_PT240H.grib2 2026-04-28 04:48 5.3M
20260428T00Z_MSC_GDPS_IcePellets-Accum12h_Sfc_LatLon0.15_PT240H.grib2 2026-04-28 04:48 25K
20260428T00Z_MSC_GDPS_IcePellets-Accum24h_Sfc_LatLon0.15_PT240H.grib2 2026-04-28 04:48 35K
20260428T00Z_MSC_GDPS_IcePellets-Accum6h_Sfc_LatLon0.15_PT240H.grib2 2026-04-28 04:48 17K
20260428T00Z_MSC_GDPS_IcePellets-Accum_Sfc_LatLon0.15_PT240H.grib2 2026-04-28 04:48 183K
20260428T00Z_MSC_GDPS_KIndex_Sfc_LatLon0.15_PT240H.grib2 2026-04-28 04:48 6.5M
20260428T00Z_MSC_GDPS_LatentHeatNetFlux_Sfc_LatLon0.15_PT240H.grib2 2026-04-28 04:48 682K
20260428T00Z_MSC_GDPS_LiftedIndex-MU-VT_IsbL-0500_LatLon0.15_PT240H.grib2 2026-04-28 04:48 5.3M
20260428T00Z_MSC_GDPS_NetLongwaveRadiationFlux-Accum_Sfc_LatLon0.15_PT240H.grib2 2026-04-28 04:48 968K
20260428T00Z_MSC_GDPS_NetShortwaveRadiationFlux-Accum_Sfc_LatLon0.15_PT240H.grib2 2026-04-28 04:48 920K
20260428T00Z_MSC_GDPS_O3MixingRatio_LatLon0.15_PT240H.grib2 2026-04-28 04:55 2.2M
20260428T00Z_MSC_GDPS_O3_EAtm_LatLon0.15_PT240H.grib2 2026-04-28 04:55 2.4M
20260428T00Z_MSC_GDPS_PlanetaryBoundaryLayerHeight_Sfc_LatLon0.15_PT240H.grib2 2026-04-28 04:48 2.5M
20260428T00Z_MSC_GDPS_Precip-Accum12h_Sfc_LatLon0.15_PT240H.grib2 2026-04-28 04:48 4.1M
20260428T00Z_MSC_GDPS_Precip-Accum24h_Sfc_LatLon0.15_PT240H.grib2 2026-04-28 04:48 4.3M
20260428T00Z_MSC_GDPS_Precip-Accum6h_Sfc_LatLon0.15_PT240H.grib2 2026-04-28 04:48 3.9M
20260428T00Z_MSC_GDPS_Precip-Accum_Sfc_LatLon0.15_PT240H.grib2 2026-04-28 04:48 5.5M
20260428T00Z_MSC_GDPS_PrecipRate_Sfc_LatLon0.15_PT240H.grib2 2026-04-28 04:48 3.0M
20260428T00Z_MSC_GDPS_PrecipType-Instant_Sfc_LatLon0.15_PT240H.grib2 2026-04-28 04:48 1.5M
20260428T00Z_MSC_GDPS_Pressure_MSL_LatLon0.15_PT240H.grib2 2026-04-28 04:48 827K
20260428T00Z_MSC_GDPS_Pressure_PVU-1.5_LatLon0.15_PT240H.grib2 2026-04-28 04:48 5.8M
20260428T00Z_MSC_GDPS_Pressure_PVU-1_LatLon0.15_PT240H.grib2 2026-04-28 04:48 6.0M
20260428T00Z_MSC_GDPS_Pressure_PVU-2_LatLon0.15_PT240H.grib2 2026-04-28 04:48 5.7M
20260428T00Z_MSC_GDPS_Pressure_Sfc_LatLon0.15_PT240H.grib2 2026-04-28 04:48 1.1M
20260428T00Z_MSC_GDPS_RadiativeTemp_Sfc_LatLon0.15_PT240H.grib2 2026-04-28 04:48 661K
20260428T00Z_MSC_GDPS_Rain-Accum12h_Sfc_LatLon0.15_PT240H.grib2 2026-04-28 04:48 2.7M
20260428T00Z_MSC_GDPS_Rain-Accum24h_Sfc_LatLon0.15_PT240H.grib2 2026-04-28 04:48 3.0M
20260428T00Z_MSC_GDPS_Rain-Accum6h_Sfc_LatLon0.15_PT240H.grib2 2026-04-28 04:48 2.5M
20260428T00Z_MSC_GDPS_Rain-Accum_Sfc_LatLon0.15_PT240H.grib2 2026-04-28 04:48 4.4M
20260428T00Z_MSC_GDPS_RelativeHumidity_AGL-2m_LatLon0.15_PT240H.grib2 2026-04-28 04:48 1.1M
20260428T00Z_MSC_GDPS_RelativeHumidity_IsbL-0010_LatLon0.15_PT240H.grib2 2026-04-28 04:48 189K
20260428T00Z_MSC_GDPS_RelativeHumidity_IsbL-0020_LatLon0.15_PT240H.grib2 2026-04-28 04:48 155K
20260428T00Z_MSC_GDPS_RelativeHumidity_IsbL-0030_LatLon0.15_PT240H.grib2 2026-04-28 04:48 290K
20260428T00Z_MSC_GDPS_RelativeHumidity_IsbL-0050_LatLon0.15_PT240H.grib2 2026-04-28 04:48 329K
20260428T00Z_MSC_GDPS_RelativeHumidity_IsbL-0100_LatLon0.15_PT240H.grib2 2026-04-28 04:48 346K
20260428T00Z_MSC_GDPS_RelativeHumidity_IsbL-0150_LatLon0.15_PT240H.grib2 2026-04-28 04:48 673K
20260428T00Z_MSC_GDPS_RelativeHumidity_IsbL-0175_LatLon0.15_PT240H.grib2 2026-04-28 04:48 809K
20260428T00Z_MSC_GDPS_RelativeHumidity_IsbL-0200_LatLon0.15_PT240H.grib2 2026-04-28 04:48 721K
20260428T00Z_MSC_GDPS_RelativeHumidity_IsbL-0225_LatLon0.15_PT240H.grib2 2026-04-28 04:48 798K
20260428T00Z_MSC_GDPS_RelativeHumidity_IsbL-0250_LatLon0.15_PT240H.grib2 2026-04-28 04:48 869K
20260428T00Z_MSC_GDPS_RelativeHumidity_IsbL-0275_LatLon0.15_PT240H.grib2 2026-04-28 04:48 886K
20260428T00Z_MSC_GDPS_RelativeHumidity_IsbL-0300_LatLon0.15_PT240H.grib2 2026-04-28 04:48 926K
20260428T00Z_MSC_GDPS_RelativeHumidity_IsbL-0350_LatLon0.15_PT240H.grib2 2026-04-28 04:48 944K
20260428T00Z_MSC_GDPS_RelativeHumidity_IsbL-0400_LatLon0.15_PT240H.grib2 2026-04-28 04:48 971K
20260428T00Z_MSC_GDPS_RelativeHumidity_IsbL-0450_LatLon0.15_PT240H.grib2 2026-04-28 04:48 1.0M
20260428T00Z_MSC_GDPS_RelativeHumidity_IsbL-0500_LatLon0.15_PT240H.grib2 2026-04-28 04:48 1.0M
20260428T00Z_MSC_GDPS_RelativeHumidity_IsbL-0550_LatLon0.15_PT240H.grib2 2026-04-28 04:48 1.0M
20260428T00Z_MSC_GDPS_RelativeHumidity_IsbL-0600_LatLon0.15_PT240H.grib2 2026-04-28 04:48 1.0M
20260428T00Z_MSC_GDPS_RelativeHumidity_IsbL-0650_LatLon0.15_PT240H.grib2 2026-04-28 04:48 1.1M
20260428T00Z_MSC_GDPS_RelativeHumidity_IsbL-0700_LatLon0.15_PT240H.grib2 2026-04-28 04:48 1.1M
20260428T00Z_MSC_GDPS_RelativeHumidity_IsbL-0750_LatLon0.15_PT240H.grib2 2026-04-28 04:48 1.1M
20260428T00Z_MSC_GDPS_RelativeHumidity_IsbL-0800_LatLon0.15_PT240H.grib2 2026-04-28 04:48 1.2M
20260428T00Z_MSC_GDPS_RelativeHumidity_IsbL-0850_LatLon0.15_PT240H.grib2 2026-04-28 04:48 1.3M
20260428T00Z_MSC_GDPS_RelativeHumidity_IsbL-0875_LatLon0.15_PT240H.grib2 2026-04-28 04:48 1.2M
20260428T00Z_MSC_GDPS_RelativeHumidity_IsbL-0900_LatLon0.15_PT240H.grib2 2026-04-28 04:48 1.2M
20260428T00Z_MSC_GDPS_RelativeHumidity_IsbL-0925_LatLon0.15_PT240H.grib2 2026-04-28 04:48 1.2M
20260428T00Z_MSC_GDPS_RelativeHumidity_IsbL-0950_LatLon0.15_PT240H.grib2 2026-04-28 04:48 1.2M
20260428T00Z_MSC_GDPS_RelativeHumidity_IsbL-0970_LatLon0.15_PT240H.grib2 2026-04-28 04:48 1.2M
20260428T00Z_MSC_GDPS_RelativeHumidity_IsbL-0985_LatLon0.15_PT240H.grib2 2026-04-28 04:48 1.2M
20260428T00Z_MSC_GDPS_RelativeHumidity_IsbL-1000_LatLon0.15_PT240H.grib2 2026-04-28 04:48 1.2M
20260428T00Z_MSC_GDPS_RelativeHumidity_IsbL-1015_LatLon0.15_PT240H.grib2 2026-04-28 04:48 1.1M
20260428T00Z_MSC_GDPS_RelativeVorticity_IsbL-0200_LatLon0.15_PT240H.grib2 2026-04-28 04:48 1.2M
20260428T00Z_MSC_GDPS_RelativeVorticity_IsbL-0250_LatLon0.15_PT240H.grib2 2026-04-28 04:48 1.3M
20260428T00Z_MSC_GDPS_RelativeVorticity_IsbL-0500_LatLon0.15_PT240H.grib2 2026-04-28 04:48 1.2M
20260428T00Z_MSC_GDPS_RelativeVorticity_IsbL-0700_LatLon0.15_PT240H.grib2 2026-04-28 04:48 1.3M
20260428T00Z_MSC_GDPS_RelativeVorticity_IsbL-0850_LatLon0.15_PT240H.grib2 2026-04-28 04:48 1.6M
20260428T00Z_MSC_GDPS_Runoff-Accum_Sfc_LatLon0.15_PT240H.grib2 2026-04-28 04:48 143K
20260428T00Z_MSC_GDPS_SensibleHeatNetFlux_Sfc_LatLon0.15_PT240H.grib2 2026-04-28 04:48 456K
20260428T00Z_MSC_GDPS_ShowalterIndex_IsbL-0500_LatLon0.15_PT240H.grib2 2026-04-28 04:48 6.2M
20260428T00Z_MSC_GDPS_Snow-Accum12h_Sfc_LatLon0.15_PT240H.grib2 2026-04-28 04:48 1.4M
20260428T00Z_MSC_GDPS_Snow-Accum24h_Sfc_LatLon0.15_PT240H.grib2 2026-04-28 04:48 1.6M
20260428T00Z_MSC_GDPS_Snow-Accum6h_Sfc_LatLon0.15_PT240H.grib2 2026-04-28 04:48 1.4M
20260428T00Z_MSC_GDPS_Snow-Accum_Sfc_LatLon0.15_PT240H.grib2 2026-04-28 04:48 2.2M
20260428T00Z_MSC_GDPS_SnowDensity_Sfc_LatLon0.15_PT240H.grib2 2026-04-28 04:48 258K
20260428T00Z_MSC_GDPS_SnowDepth_Sfc_LatLon0.15_PT240H.grib2 2026-04-28 04:48 1.7M
20260428T00Z_MSC_GDPS_SoilTemp_DBS-0to10cm_LatLon0.15_PT240H.grib2 2026-04-28 04:48 513K
20260428T00Z_MSC_GDPS_SoilTemp_Sfc_LatLon0.15_PT240H.grib2 2026-04-28 04:48 560K
20260428T00Z_MSC_GDPS_SoilVolumetricIceContent_Sfc_LatLon0.15_PT240H.grib2 2026-04-28 04:48 185K
20260428T00Z_MSC_GDPS_SoilVolumetricWaterContent_DBS-0to10cm_LatLon0.15_PT240H.grib2 2026-04-28 04:48 595K
20260428T00Z_MSC_GDPS_SoilVolumetricWaterContent_DBS-0to1cm_LatLon0.15_PT240H.grib2 2026-04-28 04:48 646K
20260428T00Z_MSC_GDPS_SpecificHumidity_AGL-120m_LatLon0.15_PT240H.grib2 2026-04-28 04:48 1.1M
20260428T00Z_MSC_GDPS_SpecificHumidity_AGL-2m_LatLon0.15_PT240H.grib2 2026-04-28 04:48 1.2M
20260428T00Z_MSC_GDPS_SpecificHumidity_AGL-40m_LatLon0.15_PT240H.grib2 2026-04-28 04:48 1.1M
20260428T00Z_MSC_GDPS_SpecificHumidity_AGL-80m_LatLon0.15_PT240H.grib2 2026-04-28 04:48 1.1M
20260428T00Z_MSC_GDPS_SpecificHumidity_IsbL-0001_LatLon0.15_PT240H.grib2 2026-04-28 04:48 1.1M
20260428T00Z_MSC_GDPS_SpecificHumidity_IsbL-0005_LatLon0.15_PT240H.grib2 2026-04-28 04:48 1.0M
20260428T00Z_MSC_GDPS_SpecificHumidity_IsbL-0010_LatLon0.15_PT240H.grib2 2026-04-28 04:48 1.1M
20260428T00Z_MSC_GDPS_SpecificHumidity_IsbL-0020_LatLon0.15_PT240H.grib2 2026-04-28 04:48 1.1M
20260428T00Z_MSC_GDPS_SpecificHumidity_IsbL-0030_LatLon0.15_PT240H.grib2 2026-04-28 04:48 1.4M
20260428T00Z_MSC_GDPS_SpecificHumidity_IsbL-0050_LatLon0.15_PT240H.grib2 2026-04-28 04:48 1.4M
20260428T00Z_MSC_GDPS_SpecificHumidity_IsbL-0100_LatLon0.15_PT240H.grib2 2026-04-28 04:48 1.0M
20260428T00Z_MSC_GDPS_SpecificHumidity_IsbL-0150_LatLon0.15_PT240H.grib2 2026-04-28 04:48 1.3M
20260428T00Z_MSC_GDPS_SpecificHumidity_IsbL-0175_LatLon0.15_PT240H.grib2 2026-04-28 04:48 1.3M
20260428T00Z_MSC_GDPS_SpecificHumidity_IsbL-0200_LatLon0.15_PT240H.grib2 2026-04-28 04:48 1.3M
20260428T00Z_MSC_GDPS_SpecificHumidity_IsbL-0225_LatLon0.15_PT240H.grib2 2026-04-28 04:48 1.3M
20260428T00Z_MSC_GDPS_SpecificHumidity_IsbL-0250_LatLon0.15_PT240H.grib2 2026-04-28 04:48 1.2M
20260428T00Z_MSC_GDPS_SpecificHumidity_IsbL-0275_LatLon0.15_PT240H.grib2 2026-04-28 04:48 1.3M
20260428T00Z_MSC_GDPS_SpecificHumidity_IsbL-0300_LatLon0.15_PT240H.grib2 2026-04-28 04:48 1.2M
20260428T00Z_MSC_GDPS_SpecificHumidity_IsbL-0350_LatLon0.15_PT240H.grib2 2026-04-28 04:48 1.2M
20260428T00Z_MSC_GDPS_SpecificHumidity_IsbL-0400_LatLon0.15_PT240H.grib2 2026-04-28 04:48 1.4M
20260428T00Z_MSC_GDPS_SpecificHumidity_IsbL-0450_LatLon0.15_PT240H.grib2 2026-04-28 04:48 1.3M
20260428T00Z_MSC_GDPS_SpecificHumidity_IsbL-0500_LatLon0.15_PT240H.grib2 2026-04-28 04:48 1.5M
20260428T00Z_MSC_GDPS_SpecificHumidity_IsbL-0550_LatLon0.15_PT240H.grib2 2026-04-28 04:48 1.6M
20260428T00Z_MSC_GDPS_SpecificHumidity_IsbL-0600_LatLon0.15_PT240H.grib2 2026-04-28 04:48 1.4M
20260428T00Z_MSC_GDPS_SpecificHumidity_IsbL-0650_LatLon0.15_PT240H.grib2 2026-04-28 04:48 1.5M
20260428T00Z_MSC_GDPS_SpecificHumidity_IsbL-0700_LatLon0.15_PT240H.grib2 2026-04-28 04:48 1.6M
20260428T00Z_MSC_GDPS_SpecificHumidity_IsbL-0750_LatLon0.15_PT240H.grib2 2026-04-28 04:48 1.7M
20260428T00Z_MSC_GDPS_SpecificHumidity_IsbL-0800_LatLon0.15_PT240H.grib2 2026-04-28 04:48 1.8M
20260428T00Z_MSC_GDPS_SpecificHumidity_IsbL-0850_LatLon0.15_PT240H.grib2 2026-04-28 04:48 1.9M
20260428T00Z_MSC_GDPS_SpecificHumidity_IsbL-0875_LatLon0.15_PT240H.grib2 2026-04-28 04:48 1.9M
20260428T00Z_MSC_GDPS_SpecificHumidity_IsbL-0900_LatLon0.15_PT240H.grib2 2026-04-28 04:48 1.9M
20260428T00Z_MSC_GDPS_SpecificHumidity_IsbL-0925_LatLon0.15_PT240H.grib2 2026-04-28 04:48 1.9M
20260428T00Z_MSC_GDPS_SpecificHumidity_IsbL-0950_LatLon0.15_PT240H.grib2 2026-04-28 04:48 1.5M
20260428T00Z_MSC_GDPS_SpecificHumidity_IsbL-0970_LatLon0.15_PT240H.grib2 2026-04-28 04:48 1.5M
20260428T00Z_MSC_GDPS_SpecificHumidity_IsbL-0985_LatLon0.15_PT240H.grib2 2026-04-28 04:48 1.5M
20260428T00Z_MSC_GDPS_SpecificHumidity_IsbL-1000_LatLon0.15_PT240H.grib2 2026-04-28 04:48 1.5M
20260428T00Z_MSC_GDPS_SpecificHumidity_IsbL-1015_LatLon0.15_PT240H.grib2 2026-04-28 04:48 1.4M
20260428T00Z_MSC_GDPS_SpecificHumidity_Sfc_LatLon0.15_PT240H.grib2 2026-04-28 04:48 636K
20260428T00Z_MSC_GDPS_Thickness_IsbL-0850to0700_LatLon0.15_PT240H.grib2 2026-04-28 04:48 473K
20260428T00Z_MSC_GDPS_Thickness_IsbL-1000to0500_LatLon0.15_PT240H.grib2 2026-04-28 04:48 379K
20260428T00Z_MSC_GDPS_Thickness_IsbL-1000to0850_LatLon0.15_PT240H.grib2 2026-04-28 04:48 490K
20260428T00Z_MSC_GDPS_TotalCloudCover_Sfc_LatLon0.15_PT240H.grib2 2026-04-28 04:48 826K
20260428T00Z_MSC_GDPS_TotalTotalsIndex_Sfc_LatLon0.15_PT240H.grib2 2026-04-28 04:48 6.2M
20260428T00Z_MSC_GDPS_UVIndex-ClearSky_Sfc_LatLon0.15_PT240H.grib2 2026-04-28 04:55 1.0M
20260428T00Z_MSC_GDPS_UVIndex_Sfc_LatLon0.15_PT240H.grib2 2026-04-28 04:55 1.5M
20260428T00Z_MSC_GDPS_UpwardLongwaveRadiationFlux_NTAtm_LatLon0.15_PT240H.grib2 2026-04-28 04:48 836K
20260428T00Z_MSC_GDPS_VerticalVelocity_IsbL-0200_LatLon0.15_PT240H.grib2 2026-04-28 04:48 1.2M
20260428T00Z_MSC_GDPS_VerticalVelocity_IsbL-0250_LatLon0.15_PT240H.grib2 2026-04-28 04:48 1.1M
20260428T00Z_MSC_GDPS_VerticalVelocity_IsbL-0500_LatLon0.15_PT240H.grib2 2026-04-28 04:48 1.0M
20260428T00Z_MSC_GDPS_VerticalVelocity_IsbL-0600_LatLon0.15_PT240H.grib2 2026-04-28 04:48 1.1M
20260428T00Z_MSC_GDPS_VerticalVelocity_IsbL-0700_LatLon0.15_PT240H.grib2 2026-04-28 04:48 1.4M
20260428T00Z_MSC_GDPS_VerticalVelocity_IsbL-0850_LatLon0.15_PT240H.grib2 2026-04-28 04:48 1.6M
20260428T00Z_MSC_GDPS_WindChill_Sfc_LatLon0.15_PT240H.grib2 2026-04-28 04:48 5.3M
20260428T00Z_MSC_GDPS_WindDir_AGL-10m_LatLon0.15_PT240H.grib2 2026-04-28 04:48 1.3M
20260428T00Z_MSC_GDPS_WindDir_AGL-120m_LatLon0.15_PT240H.grib2 2026-04-28 04:48 1.3M
20260428T00Z_MSC_GDPS_WindDir_AGL-40m_LatLon0.15_PT240H.grib2 2026-04-28 04:48 1.4M
20260428T00Z_MSC_GDPS_WindDir_AGL-80m_LatLon0.15_PT240H.grib2 2026-04-28 04:48 1.3M
20260428T00Z_MSC_GDPS_WindDir_IsbL-0001_LatLon0.15_PT240H.grib2 2026-04-28 04:48 670K
20260428T00Z_MSC_GDPS_WindDir_IsbL-0005_LatLon0.15_PT240H.grib2 2026-04-28 04:48 802K
20260428T00Z_MSC_GDPS_WindDir_IsbL-0010_LatLon0.15_PT240H.grib2 2026-04-28 04:48 824K
20260428T00Z_MSC_GDPS_WindDir_IsbL-0020_LatLon0.15_PT240H.grib2 2026-04-28 04:48 925K
20260428T00Z_MSC_GDPS_WindDir_IsbL-0030_LatLon0.15_PT240H.grib2 2026-04-28 04:48 934K
20260428T00Z_MSC_GDPS_WindDir_IsbL-0050_LatLon0.15_PT240H.grib2 2026-04-28 04:48 942K
20260428T00Z_MSC_GDPS_WindDir_IsbL-0100_LatLon0.15_PT240H.grib2 2026-04-28 04:48 1.0M
20260428T00Z_MSC_GDPS_WindDir_IsbL-0150_LatLon0.15_PT240H.grib2 2026-04-28 04:48 1.0M
20260428T00Z_MSC_GDPS_WindDir_IsbL-0175_LatLon0.15_PT240H.grib2 2026-04-28 04:48 1.0M
20260428T00Z_MSC_GDPS_WindDir_IsbL-0200_LatLon0.15_PT240H.grib2 2026-04-28 04:48 1.1M
20260428T00Z_MSC_GDPS_WindDir_IsbL-0225_LatLon0.15_PT240H.grib2 2026-04-28 04:48 1.1M
20260428T00Z_MSC_GDPS_WindDir_IsbL-0250_LatLon0.15_PT240H.grib2 2026-04-28 04:48 1.1M
20260428T00Z_MSC_GDPS_WindDir_IsbL-0275_LatLon0.15_PT240H.grib2 2026-04-28 04:48 1.2M
20260428T00Z_MSC_GDPS_WindDir_IsbL-0300_LatLon0.15_PT240H.grib2 2026-04-28 04:48 1.2M
20260428T00Z_MSC_GDPS_WindDir_IsbL-0350_LatLon0.15_PT240H.grib2 2026-04-28 04:48 1.2M
20260428T00Z_MSC_GDPS_WindDir_IsbL-0400_LatLon0.15_PT240H.grib2 2026-04-28 04:48 1.3M
20260428T00Z_MSC_GDPS_WindDir_IsbL-0450_LatLon0.15_PT240H.grib2 2026-04-28 04:48 1.3M
20260428T00Z_MSC_GDPS_WindDir_IsbL-0500_LatLon0.15_PT240H.grib2 2026-04-28 04:48 1.4M
20260428T00Z_MSC_GDPS_WindDir_IsbL-0550_LatLon0.15_PT240H.grib2 2026-04-28 04:48 1.4M
20260428T00Z_MSC_GDPS_WindDir_IsbL-0600_LatLon0.15_PT240H.grib2 2026-04-28 04:48 1.5M
20260428T00Z_MSC_GDPS_WindDir_IsbL-0650_LatLon0.15_PT240H.grib2 2026-04-28 04:48 1.5M
20260428T00Z_MSC_GDPS_WindDir_IsbL-0700_LatLon0.15_PT240H.grib2 2026-04-28 04:48 1.6M
20260428T00Z_MSC_GDPS_WindDir_IsbL-0750_LatLon0.15_PT240H.grib2 2026-04-28 04:48 1.7M
20260428T00Z_MSC_GDPS_WindDir_IsbL-0800_LatLon0.15_PT240H.grib2 2026-04-28 04:48 1.8M
20260428T00Z_MSC_GDPS_WindDir_IsbL-0850_LatLon0.15_PT240H.grib2 2026-04-28 04:48 1.9M
20260428T00Z_MSC_GDPS_WindDir_IsbL-0875_LatLon0.15_PT240H.grib2 2026-04-28 04:48 1.9M
20260428T00Z_MSC_GDPS_WindDir_IsbL-0900_LatLon0.15_PT240H.grib2 2026-04-28 04:48 1.9M
20260428T00Z_MSC_GDPS_WindDir_IsbL-0925_LatLon0.15_PT240H.grib2 2026-04-28 04:48 1.9M
20260428T00Z_MSC_GDPS_WindDir_IsbL-0950_LatLon0.15_PT240H.grib2 2026-04-28 04:48 1.9M
20260428T00Z_MSC_GDPS_WindDir_IsbL-0970_LatLon0.15_PT240H.grib2 2026-04-28 04:48 2.0M
20260428T00Z_MSC_GDPS_WindDir_IsbL-0985_LatLon0.15_PT240H.grib2 2026-04-28 04:48 2.0M
20260428T00Z_MSC_GDPS_WindDir_IsbL-1000_LatLon0.15_PT240H.grib2 2026-04-28 04:48 2.0M
20260428T00Z_MSC_GDPS_WindDir_IsbL-1015_LatLon0.15_PT240H.grib2 2026-04-28 04:48 2.0M
20260428T00Z_MSC_GDPS_WindGust-Max_AGL-10m_LatLon0.15_PT240H.grib2 2026-04-28 04:48 2.2M
20260428T00Z_MSC_GDPS_WindGust-Min_AGL-10m_LatLon0.15_PT240H.grib2 2026-04-28 04:48 2.2M
20260428T00Z_MSC_GDPS_WindGust_AGL-10m_LatLon0.15_PT240H.grib2 2026-04-28 04:48 2.2M
20260428T00Z_MSC_GDPS_WindSpeed_AGL-10m_LatLon0.15_PT240H.grib2 2026-04-28 04:48 1.1M
20260428T00Z_MSC_GDPS_WindSpeed_AGL-120m_LatLon0.15_PT240H.grib2 2026-04-28 04:48 1.2M
20260428T00Z_MSC_GDPS_WindSpeed_AGL-40m_LatLon0.15_PT240H.grib2 2026-04-28 04:48 1.2M
20260428T00Z_MSC_GDPS_WindSpeed_AGL-80m_LatLon0.15_PT240H.grib2 2026-04-28 04:48 1.2M
20260428T00Z_MSC_GDPS_WindSpeed_IsbL-0001_LatLon0.15_PT240H.grib2 2026-04-28 04:48 652K
20260428T00Z_MSC_GDPS_WindSpeed_IsbL-0005_LatLon0.15_PT240H.grib2 2026-04-28 04:48 692K
20260428T00Z_MSC_GDPS_WindSpeed_IsbL-0010_LatLon0.15_PT240H.grib2 2026-04-28 04:48 624K
20260428T00Z_MSC_GDPS_WindSpeed_IsbL-0020_LatLon0.15_PT240H.grib2 2026-04-28 04:48 659K
20260428T00Z_MSC_GDPS_WindSpeed_IsbL-0030_LatLon0.15_PT240H.grib2 2026-04-28 04:48 856K
20260428T00Z_MSC_GDPS_WindSpeed_IsbL-0050_LatLon0.15_PT240H.grib2 2026-04-28 04:48 887K
20260428T00Z_MSC_GDPS_WindSpeed_IsbL-0100_LatLon0.15_PT240H.grib2 2026-04-28 04:48 1.2M
20260428T00Z_MSC_GDPS_WindSpeed_IsbL-0150_LatLon0.15_PT240H.grib2 2026-04-28 04:48 949K
20260428T00Z_MSC_GDPS_WindSpeed_IsbL-0175_LatLon0.15_PT240H.grib2 2026-04-28 04:48 1.0M
20260428T00Z_MSC_GDPS_WindSpeed_IsbL-0200_LatLon0.15_PT240H.grib2 2026-04-28 04:48 1.1M
20260428T00Z_MSC_GDPS_WindSpeed_IsbL-0225_LatLon0.15_PT240H.grib2 2026-04-28 04:48 1.1M
20260428T00Z_MSC_GDPS_WindSpeed_IsbL-0250_LatLon0.15_PT240H.grib2 2026-04-28 04:48 1.1M
20260428T00Z_MSC_GDPS_WindSpeed_IsbL-0275_LatLon0.15_PT240H.grib2 2026-04-28 04:48 1.1M
20260428T00Z_MSC_GDPS_WindSpeed_IsbL-0300_LatLon0.15_PT240H.grib2 2026-04-28 04:48 1.1M
20260428T00Z_MSC_GDPS_WindSpeed_IsbL-0350_LatLon0.15_PT240H.grib2 2026-04-28 04:48 1.1M
20260428T00Z_MSC_GDPS_WindSpeed_IsbL-0400_LatLon0.15_PT240H.grib2 2026-04-28 04:48 1.1M
20260428T00Z_MSC_GDPS_WindSpeed_IsbL-0450_LatLon0.15_PT240H.grib2 2026-04-28 04:48 1.1M
20260428T00Z_MSC_GDPS_WindSpeed_IsbL-0500_LatLon0.15_PT240H.grib2 2026-04-28 04:48 1.1M
20260428T00Z_MSC_GDPS_WindSpeed_IsbL-0550_LatLon0.15_PT240H.grib2 2026-04-28 04:48 1.1M
20260428T00Z_MSC_GDPS_WindSpeed_IsbL-0600_LatLon0.15_PT240H.grib2 2026-04-28 04:48 1.4M
20260428T00Z_MSC_GDPS_WindSpeed_IsbL-0650_LatLon0.15_PT240H.grib2 2026-04-28 04:48 1.4M
20260428T00Z_MSC_GDPS_WindSpeed_IsbL-0700_LatLon0.15_PT240H.grib2 2026-04-28 04:48 1.5M
20260428T00Z_MSC_GDPS_WindSpeed_IsbL-0750_LatLon0.15_PT240H.grib2 2026-04-28 04:48 1.5M
20260428T00Z_MSC_GDPS_WindSpeed_IsbL-0800_LatLon0.15_PT240H.grib2 2026-04-28 04:48 1.6M
20260428T00Z_MSC_GDPS_WindSpeed_IsbL-0850_LatLon0.15_PT240H.grib2 2026-04-28 04:48 1.7M
20260428T00Z_MSC_GDPS_WindSpeed_IsbL-0875_LatLon0.15_PT240H.grib2 2026-04-28 04:48 1.8M
20260428T00Z_MSC_GDPS_WindSpeed_IsbL-0900_LatLon0.15_PT240H.grib2 2026-04-28 04:48 1.8M
20260428T00Z_MSC_GDPS_WindSpeed_IsbL-0925_LatLon0.15_PT240H.grib2 2026-04-28 04:48 1.8M
20260428T00Z_MSC_GDPS_WindSpeed_IsbL-0950_LatLon0.15_PT240H.grib2 2026-04-28 04:48 1.9M
20260428T00Z_MSC_GDPS_WindSpeed_IsbL-0970_LatLon0.15_PT240H.grib2 2026-04-28 04:48 1.9M
20260428T00Z_MSC_GDPS_WindSpeed_IsbL-0985_LatLon0.15_PT240H.grib2 2026-04-28 04:48 1.9M
20260428T00Z_MSC_GDPS_WindSpeed_IsbL-1000_LatLon0.15_PT240H.grib2 2026-04-28 04:48 1.9M
20260428T00Z_MSC_GDPS_WindSpeed_IsbL-1015_LatLon0.15_PT240H.grib2 2026-04-28 04:48 1.8M
20260428T00Z_MSC_GDPS_WindU_AGL-10m_LatLon0.15_PT240H.grib2 2026-04-28 04:48 1.3M
20260428T00Z_MSC_GDPS_WindU_AGL-120m_LatLon0.15_PT240H.grib2 2026-04-28 04:48 1.0M
20260428T00Z_MSC_GDPS_WindU_AGL-40m_LatLon0.15_PT240H.grib2 2026-04-28 04:48 970K
20260428T00Z_MSC_GDPS_WindU_AGL-80m_LatLon0.15_PT240H.grib2 2026-04-28 04:48 1.0M
20260428T00Z_MSC_GDPS_WindU_IsbL-0001_LatLon0.15_PT240H.grib2 2026-04-28 04:48 507K
20260428T00Z_MSC_GDPS_WindU_IsbL-0005_LatLon0.15_PT240H.grib2 2026-04-28 04:48 692K
20260428T00Z_MSC_GDPS_WindU_IsbL-0010_LatLon0.15_PT240H.grib2 2026-04-28 04:48 698K
20260428T00Z_MSC_GDPS_WindU_IsbL-0020_LatLon0.15_PT240H.grib2 2026-04-28 04:48 724K
20260428T00Z_MSC_GDPS_WindU_IsbL-0030_LatLon0.15_PT240H.grib2 2026-04-28 04:48 733K
20260428T00Z_MSC_GDPS_WindU_IsbL-0050_LatLon0.15_PT240H.grib2 2026-04-28 04:48 683K
20260428T00Z_MSC_GDPS_WindU_IsbL-0100_LatLon0.15_PT240H.grib2 2026-04-28 04:48 861K
20260428T00Z_MSC_GDPS_WindU_IsbL-0150_LatLon0.15_PT240H.grib2 2026-04-28 04:48 1.0M
20260428T00Z_MSC_GDPS_WindU_IsbL-0175_LatLon0.15_PT240H.grib2 2026-04-28 04:48 1.0M
20260428T00Z_MSC_GDPS_WindU_IsbL-0200_LatLon0.15_PT240H.grib2 2026-04-28 04:48 851K
20260428T00Z_MSC_GDPS_WindU_IsbL-0225_LatLon0.15_PT240H.grib2 2026-04-28 04:48 860K
20260428T00Z_MSC_GDPS_WindU_IsbL-0250_LatLon0.15_PT240H.grib2 2026-04-28 04:48 861K
20260428T00Z_MSC_GDPS_WindU_IsbL-0275_LatLon0.15_PT240H.grib2 2026-04-28 04:48 887K
20260428T00Z_MSC_GDPS_WindU_IsbL-0300_LatLon0.15_PT240H.grib2 2026-04-28 04:48 880K
20260428T00Z_MSC_GDPS_WindU_IsbL-0350_LatLon0.15_PT240H.grib2 2026-04-28 04:48 897K
20260428T00Z_MSC_GDPS_WindU_IsbL-0400_LatLon0.15_PT240H.grib2 2026-04-28 04:48 901K
20260428T00Z_MSC_GDPS_WindU_IsbL-0450_LatLon0.15_PT240H.grib2 2026-04-28 04:48 902K
20260428T00Z_MSC_GDPS_WindU_IsbL-0500_LatLon0.15_PT240H.grib2 2026-04-28 04:48 1.1M
20260428T00Z_MSC_GDPS_WindU_IsbL-0550_LatLon0.15_PT240H.grib2 2026-04-28 04:48 1.1M
20260428T00Z_MSC_GDPS_WindU_IsbL-0600_LatLon0.15_PT240H.grib2 2026-04-28 04:48 1.2M
20260428T00Z_MSC_GDPS_WindU_IsbL-0650_LatLon0.15_PT240H.grib2 2026-04-28 04:48 1.2M
20260428T00Z_MSC_GDPS_WindU_IsbL-0700_LatLon0.15_PT240H.grib2 2026-04-28 04:48 1.2M
20260428T00Z_MSC_GDPS_WindU_IsbL-0750_LatLon0.15_PT240H.grib2 2026-04-28 04:48 1.3M
20260428T00Z_MSC_GDPS_WindU_IsbL-0800_LatLon0.15_PT240H.grib2 2026-04-28 04:48 1.3M
20260428T00Z_MSC_GDPS_WindU_IsbL-0850_LatLon0.15_PT240H.grib2 2026-04-28 04:48 1.4M
20260428T00Z_MSC_GDPS_WindU_IsbL-0875_LatLon0.15_PT240H.grib2 2026-04-28 04:48 1.5M
20260428T00Z_MSC_GDPS_WindU_IsbL-0900_LatLon0.15_PT240H.grib2 2026-04-28 04:48 1.5M
20260428T00Z_MSC_GDPS_WindU_IsbL-0925_LatLon0.15_PT240H.grib2 2026-04-28 04:48 1.5M
20260428T00Z_MSC_GDPS_WindU_IsbL-0950_LatLon0.15_PT240H.grib2 2026-04-28 04:48 1.4M
20260428T00Z_MSC_GDPS_WindU_IsbL-0970_LatLon0.15_PT240H.grib2 2026-04-28 04:48 1.4M
20260428T00Z_MSC_GDPS_WindU_IsbL-0985_LatLon0.15_PT240H.grib2 2026-04-28 04:48 1.4M
20260428T00Z_MSC_GDPS_WindU_IsbL-1000_LatLon0.15_PT240H.grib2 2026-04-28 04:48 1.4M
20260428T00Z_MSC_GDPS_WindU_IsbL-1015_LatLon0.15_PT240H.grib2 2026-04-28 04:48 1.3M
20260428T00Z_MSC_GDPS_WindV_AGL-10m_LatLon0.15_PT240H.grib2 2026-04-28 04:48 1.3M
20260428T00Z_MSC_GDPS_WindV_AGL-120m_LatLon0.15_PT240H.grib2 2026-04-28 04:48 1.0M
20260428T00Z_MSC_GDPS_WindV_AGL-40m_LatLon0.15_PT240H.grib2 2026-04-28 04:48 965K
20260428T00Z_MSC_GDPS_WindV_AGL-80m_LatLon0.15_PT240H.grib2 2026-04-28 04:48 972K
20260428T00Z_MSC_GDPS_WindV_IsbL-0001_LatLon0.15_PT240H.grib2 2026-04-28 04:48 787K
20260428T00Z_MSC_GDPS_WindV_IsbL-0005_LatLon0.15_PT240H.grib2 2026-04-28 04:48 860K
20260428T00Z_MSC_GDPS_WindV_IsbL-0010_LatLon0.15_PT240H.grib2 2026-04-28 04:48 884K
20260428T00Z_MSC_GDPS_WindV_IsbL-0020_LatLon0.15_PT240H.grib2 2026-04-28 04:48 927K
20260428T00Z_MSC_GDPS_WindV_IsbL-0030_LatLon0.15_PT240H.grib2 2026-04-28 04:48 932K
20260428T00Z_MSC_GDPS_WindV_IsbL-0050_LatLon0.15_PT240H.grib2 2026-04-28 04:48 968K
20260428T00Z_MSC_GDPS_WindV_IsbL-0100_LatLon0.15_PT240H.grib2 2026-04-28 04:48 1.1M
20260428T00Z_MSC_GDPS_WindV_IsbL-0150_LatLon0.15_PT240H.grib2 2026-04-28 04:48 1.0M
20260428T00Z_MSC_GDPS_WindV_IsbL-0175_LatLon0.15_PT240H.grib2 2026-04-28 04:48 822K
20260428T00Z_MSC_GDPS_WindV_IsbL-0200_LatLon0.15_PT240H.grib2 2026-04-28 04:48 911K
20260428T00Z_MSC_GDPS_WindV_IsbL-0225_LatLon0.15_PT240H.grib2 2026-04-28 04:48 920K
20260428T00Z_MSC_GDPS_WindV_IsbL-0250_LatLon0.15_PT240H.grib2 2026-04-28 04:48 919K
20260428T00Z_MSC_GDPS_WindV_IsbL-0275_LatLon0.15_PT240H.grib2 2026-04-28 04:48 944K
20260428T00Z_MSC_GDPS_WindV_IsbL-0300_LatLon0.15_PT240H.grib2 2026-04-28 04:48 936K
20260428T00Z_MSC_GDPS_WindV_IsbL-0350_LatLon0.15_PT240H.grib2 2026-04-28 04:48 889K
20260428T00Z_MSC_GDPS_WindV_IsbL-0400_LatLon0.15_PT240H.grib2 2026-04-28 04:48 892K
20260428T00Z_MSC_GDPS_WindV_IsbL-0450_LatLon0.15_PT240H.grib2 2026-04-28 04:48 893K
20260428T00Z_MSC_GDPS_WindV_IsbL-0500_LatLon0.15_PT240H.grib2 2026-04-28 04:48 1.1M
20260428T00Z_MSC_GDPS_WindV_IsbL-0550_LatLon0.15_PT240H.grib2 2026-04-28 04:48 1.1M
20260428T00Z_MSC_GDPS_WindV_IsbL-0600_LatLon0.15_PT240H.grib2 2026-04-28 04:48 1.1M
20260428T00Z_MSC_GDPS_WindV_IsbL-0650_LatLon0.15_PT240H.grib2 2026-04-28 04:48 1.2M
20260428T00Z_MSC_GDPS_WindV_IsbL-0700_LatLon0.15_PT240H.grib2 2026-04-28 04:48 1.2M
20260428T00Z_MSC_GDPS_WindV_IsbL-0750_LatLon0.15_PT240H.grib2 2026-04-28 04:48 1.3M
20260428T00Z_MSC_GDPS_WindV_IsbL-0800_LatLon0.15_PT240H.grib2 2026-04-28 04:48 1.3M
20260428T00Z_MSC_GDPS_WindV_IsbL-0850_LatLon0.15_PT240H.grib2 2026-04-28 04:48 1.4M
20260428T00Z_MSC_GDPS_WindV_IsbL-0875_LatLon0.15_PT240H.grib2 2026-04-28 04:48 1.4M
20260428T00Z_MSC_GDPS_WindV_IsbL-0900_LatLon0.15_PT240H.grib2 2026-04-28 04:48 1.5M
20260428T00Z_MSC_GDPS_WindV_IsbL-0925_LatLon0.15_PT240H.grib2 2026-04-28 04:48 1.5M
20260428T00Z_MSC_GDPS_WindV_IsbL-0950_LatLon0.15_PT240H.grib2 2026-04-28 04:48 1.4M
20260428T00Z_MSC_GDPS_WindV_IsbL-0970_LatLon0.15_PT240H.grib2 2026-04-28 04:48 1.4M
20260428T00Z_MSC_GDPS_WindV_IsbL-0985_LatLon0.15_PT240H.grib2 2026-04-28 04:48 1.4M
20260428T00Z_MSC_GDPS_WindV_IsbL-1000_LatLon0.15_PT240H.grib2 2026-04-28 04:48 1.4M
20260428T00Z_MSC_GDPS_WindV_IsbL-1015_LatLon0.15_PT240H.grib2 2026-04-28 04:48 1.3M